This is the latest recevied weather packets stored in our database for station/object WA6ODQ-13. If no packets are shown the sender has not sent any weather packets the latest 10 day(s).
| Time | Temp. | Humidity | Pressure | Rain* | Wind** | Luminosity | Snow |
|---|---|---|---|---|---|---|---|
| 1787959446 | 21.11° C | 67% | 1012.1 hPa | 0 mm | - | 100 W/m² | - |
| 1787959141 | 21.67° C | 67% | 1012.1 hPa | 0 mm | - | 104 W/m² | - |
| 1787958836 | 21.11° C | 67% | 1012.3 hPa | 0 mm | - | 106 W/m² | - |
| 1787958531 | 20.56° C | 68% | 1012.3 hPa | 0 mm | - | 108 W/m² | - |
| 1787958227 | 20.56° C | 70% | 1012.4 hPa | 0 mm | - | 104 W/m² | - |
| 1787957920 | 21.11° C | 70% | 1012.6 hPa | 0 mm | - | 100 W/m² | - |
| 1787957619 | 21.11° C | 66% | 1012.4 hPa | 0 mm | - | 102 W/m² | - |
| 1787957315 | 21.67° C | 65% | 1012.2 hPa | 0 mm | - | 110 W/m² | - |
| 1787957014 | 21.67° C | 65% | 1012.2 hPa | 0 mm | - | 110 W/m² | - |
| 1787956713 | 21.67° C | 65% | 1012.6 hPa | 0 mm | - | 110 W/m² | - |
| 1787956409 | 21.67° C | 63% | 1012.4 hPa | 0 mm | - | 108 W/m² | - |
| 1787956105 | 21.67° C | 65% | 1012.7 hPa | 0 mm | - | 113 W/m² | - |
| 1787955800 | 21.67° C | 64% | 1012.8 hPa | 0 mm | - | 124 W/m² | - |
| 1787955495 | 22.78° C | 61% | 1012.7 hPa | 0 mm | - | 152 W/m² | - |
| 1787955194 | 22.78° C | 58% | 1012.6 hPa | 0 mm | - | 177 W/m² | - |
| 1787954890 | 23.33° C | 56% | 1012.9 hPa | 0 mm | - | 254 W/m² | - |
| 1787954586 | 23.33° C | 55% | 1012.6 hPa | 0 mm | - | 267 W/m² | - |
| 1787954285 | 22.78° C | 56% | 1012.9 hPa | 0 mm | - | 312 W/m² | - |
| 1787953980 | 22.78° C | 58% | 1012.8 hPa | 0 mm | - | 425 W/m² | - |
| 1787953679 | 22.78° C | 58% | 1012.7 hPa | 0 mm | - | 243 W/m² | - |
| 1787953375 | 22.22° C | 59% | 1012.7 hPa | 0 mm | - | 219 W/m² | - |
| 1787953073 | 22.78° C | 58% | 1012.8 hPa | 0 mm | - | 246 W/m² | - |
| 1787952771 | 22.22° C | 59% | 1012.8 hPa | 0 mm | - | 225 W/m² | - |
| 1787952461 | 22.22° C | 60% | 1013.1 hPa | 0 mm | - | 239 W/m² | - |
| 1787952158 | 22.22° C | 59% | 1013.1 hPa | 0 mm | - | 242 W/m² | - |
* Rain latest hour (hover to see other rain measurements)
** Current wind speed in m/s (hover to see current wind gust speed)